GW3919 Weather Reports


time (UTC)temp
F
wind
direction
speed
knots
gust
knots
rain 1hr
in
rain 24hr
in
rain mn
in
humidity
%
barometer
mb
20260506051336 65 132 2.6 4.3 0.00 0.00 0.00 82 1009.2
20260506050833 65 163 1.7 3.5 0.00 0.00 0.00 83 1009.3
20260506050330 65 150 3.5 6.1 0.00 0.00 0.00 83 1009.2
20260506044821 66 149 2.6 3.5 0.00 0.19 0.19 83 1009.2
20260506044319 66 139 3.5 7.0 0.00 0.19 0.19 83 1009.4
20260506043815 67 113 1.7 5.2 0.00 0.19 0.19 83 1009.1
20260506043313 67 162 3.5 6.1 0.00 0.19 0.19 83 1009.3
20260506042811 68 173 7.8 7.8 0.00 0.19 0.19 82 1008.9
20260506042310 68 137 2.6 6.1 0.00 0.19 0.19 83 1008.9
20260506041808 69 163 1.7 3.5 0.00 0.19 0.19 83 1008.7
20260506041305 69 149 1.7 2.6 0.00 0.19 0.19 83 1008.7
20260506040802 69 157 2.6 4.3 0.00 0.19 0.19 83 1008.2
20260506040259 69 152 1.7 5.2 0.00 0.19 0.19 83 1008.5
20260506035756 69 149 2.6 5.2 0.00 0.19 0.19 82 1008.6
20260506035253 70 138 2.6 4.3 0.00 0.19 0.19 83 1008.4
20260506034750 70 78 1.7 5.2 0.00 0.19 0.19 83 1008.3
20260506034247 70 128 2.6 4.3 0.00 0.19 0.19 83 1008.4
20260506033744 70 165 1.7 4.3 0.00 0.19 0.19 83 1008.2
20260506033241 70 170 1.7 3.5 0.00 0.19 0.19 83 1008.0
20260506032738 71 171 2.6 3.5 0.00 0.19 0.19 83 1008.2
20260506032235 71 140 2.6 3.5 0.00 0.19 0.19 83 1008.0
20260506031731 71 123 0.9 4.3 0.00 0.19 0.19 84 1007.8
20260506031229 71 152 4.3 5.2 0.00 0.19 0.19 82 1007.8
20260506030727 72 118 1.7 6.1 0.00 0.19 0.19 83 1007.9
20260506030224 72 134 3.5 4.3 0.00 0.19 0.19 83 1007.7
20260506025721 72 158 1.7 5.2 0.00 0.19 0.19 84 1007.7
20260506025217 72 160 1.7 3.5 0.00 0.19 0.19 83 1007.6
20260506024714 72 159 1.7 2.6 0.00 0.19 0.19 83 1007.2
20260506024211 72 136 5.2 7.8 0.00 0.19 0.19 83 1007.0
20260506023707 72 143 3.5 6.1 0.00 0.19 0.19 84 1007.0
20260506023205 72 184 0.9 2.6 0.00 0.19 0.19 87 1006.7
20260506022701 72 99 0.9 2.6 0.00 0.19 0.19 88 1006.5
20260506022159 72 83 0.9 2.6 0.00 0.19 0.19 88 1006.4
20260506021657 72 233 0.0 1.7 0.00 0.19 0.19 87 1006.3
20260506021154 73 246 0.0 0.9 0.00 0.19 0.19 88 1006.2
20260506020651 73 164 1.7 2.6 0.00 0.19 0.19 86 1006.4
20260506020148 73 140 1.7 2.6 0.00 0.19 0.19 86 1006.1
20260506015646 73 167 1.7 3.5 0.00 0.19 0.19 87 1006.0
20260506015143 73 161 1.7 3.5 0.00 0.19 0.19 88 1006.1
20260506014640 73 158 3.5 7.0 0.00 0.19 0.19 88 1006.1
20260506014136 74 136 1.7 2.6 0.00 0.19 0.19 89 1005.6
20260506013634 74 128 2.6 2.6 0.00 0.19 0.19 88 1005.7
20260506013131 75 154 0.9 1.7 0.00 0.19 0.19 89 1005.6
20260506012627 75 153 3.5 4.3 0.00 0.19 0.19 90 1006.0
20260506012123 74 140 3.5 5.2 0.00 0.19 0.19 95 1005.8
20260506011621 74 153 2.6 5.2 0.00 0.19 0.19 99 1005.7
20260506011118 74 132 2.6 3.5 0.00 0.19 0.19 99 1005.6
20260506010612 74 128 2.6 4.3 0.00 0.19 0.19 99 1005.2
20260506010108 74 269 0.0 0.9 0.00 0.19 0.19 99 1004.8
20260506005605 74 262 0.9 0.9 0.00 0.19 0.19 99 1005.0
20260506005101 74 331 0.9 0.9 0.00 0.19 0.19 99 1005.1
20260506004558 73 113 0.0 1.7 0.00 0.19 0.19 99 1005.1
20260506004054 73 160 1.7 2.6 0.00 0.19 0.19 99 1005.1
20260506003551 74 178 0.9 2.6 0.00 0.19 0.19 99 1004.9
20260506003042 73 275 0.0 0.9 0.00 0.19 0.19 98 1004.9
20260506002537 73 314 0.9 2.6 0.05 0.19 0.19 97 1005.0
20260506002033 73 15 0.0 1.7 0.35 0.19 0.19 94 1005.2
20260506001529 75 258 1.7 2.6 0.97 0.18 0.18 90 1005.3
20260506001022 79 170 0.0 1.7 0.73 0.12 0.12 91 1004.8
20260506000519 83 164 0.9 1.7 0.12 0.02 0.02 82 1005.1
20260506000017 84 81 0.9 5.2 0.00 0.00 0.00 76 1004.7
20260505235515 84 16 0.9 2.6 0.00 0.00 0.00 75 1004.3
20260505235011 84 344 1.7 5.2 0.00 0.00 0.00 75 1004.1
20260505234508 84 303 2.6 3.5 0.00 0.00 0.00 75 1004.0
20260505234005 84 319 1.7 3.5 0.00 0.00 0.00 75 1003.9
20260505233502 85 292 1.7 4.3 0.00 0.00 0.00 74 1004.3
20260505233000 85 242 1.7 7.0 0.00 0.00 0.00 74 1004.1
20260505232458 86 300 1.7 2.6 0.00 0.00 0.00 73 1004.0
20260505231954 87 276 2.6 4.3 0.00 0.00 0.00 72 1004.0
20260505231452 87 29 1.7 3.5 0.00 0.00 0.00 70 1004.2
20260505230950 88 348 1.7 2.6 0.00 0.00 0.00 70 1004.1
20260505230447 88 282 2.6 3.5 0.00 0.00 0.00 69 1003.9
20260505225943 89 40 0.9 2.6 0.00 0.00 0.00 66 1003.7
20260505225441 89 329 1.7 4.3 0.00 0.00 0.00 66 1003.8
20260505224936 90 334 4.3 6.1 0.00 0.00 0.00 65 1003.7
20260505224428 92 328 2.6 4.3 0.00 0.00 0.00 64 1003.7
20260505223925 92 53 0.9 3.5 0.00 0.00 0.00 63 1003.7
20260505223422 91 336 3.5 5.2 0.00 0.00 0.00 65 1003.5
20260505222918 91 304 2.6 3.5 0.00 0.00 0.00 65 1003.6
20260505222414 91 233 1.7 1.7 0.00 0.00 0.00 63 1003.8
20260505221910 89 292 3.5 4.3 0.00 0.00 0.00 66 1003.6
20260505221408 90 291 1.7 4.3 0.00 0.00 0.00 64 1003.6
20260505220904 93 318 1.7 5.2 0.00 0.00 0.00 60 1003.7
20260505220402 92 319 0.9 3.5 0.00 0.00 0.00 61 1003.7
20260505215859 90 265 1.7 5.2 0.00 0.00 0.00 64 1003.6
20260505215357 92 294 1.7 2.6 0.00 0.00 0.00 62 1003.7
20260505214855 91 313 1.7 3.5 0.00 0.00 0.00 63 1003.8
20260505214352 92 42 1.7 5.2 0.00 0.00 0.00 62 1003.8
20260505213849 91 291 0.9 2.6 0.00 0.00 0.00 63 1003.9
20260505213347 91 314 1.7 3.5 0.00 0.00 0.00 62 1003.9
20260505212842 92 116 1.7 3.5 0.00 0.00 0.00 61 1003.9
20260505212339 92 132 7.0 7.8 0.00 0.00 0.00 60 1004.0
20260505211835 92 170 0.9 4.3 0.00 0.00 0.00 61 1004.1
20260505211333 93 319 1.7 3.5 0.00 0.00 0.00 60 1004.0
20260505210830 92 322 4.3 4.3 0.00 0.00 0.00 60 1004.0
20260505210327 92 330 3.5 3.5 0.00 0.00 0.00 62 1004.0
20260505205824 92 255 1.7 3.5 0.00 0.00 0.00 60 1004.3
20260505205323 91 294 3.5 5.2 0.00 0.00 0.00 61 1004.4
20260505204819 91 165 1.7 3.5 0.00 0.00 0.00 61 1004.4
20260505204317 91 316 3.5 4.3 0.00 0.00 0.00 62 1004.4
20260505203814 91 316 1.7 3.5 0.00 0.00 0.00 62 1004.4
20260505203310 90 6 0.9 5.2 0.00 0.00 0.00 64 1004.5
20260505202807 91 178 1.7 5.2 0.00 0.00 0.00 62 1004.5
20260505202306 90 284 1.7 4.3 0.00 0.00 0.00 62 1004.6
20260505201759 90 245 0.0 4.3 0.00 0.00 0.00 64 1004.8
20260505201256 89 299 3.5 5.2 0.00 0.00 0.00 63 1004.6
20260505200754 90 339 3.5 4.3 0.00 0.00 0.00 64 1004.7
20260505200251 91 260 1.7 2.6 0.00 0.00 0.00 63 1004.6
20260505195746 91 276 1.7 3.5 0.00 0.00 0.00 63 1004.9
20260505195244 89 242 1.7 3.5 0.00 0.00 0.00 65 1004.6
20260505194736 89 311 1.7 2.6 0.00 0.00 0.00 65 1004.6
20260505194233 88 84 0.9 3.5 0.00 0.00 0.00 67 1004.9
20260505193728 88 325 1.7 6.1 0.00 0.00 0.00 67 1004.9
20260505193226 88 150 2.6 3.5 0.00 0.00 0.00 66 1004.8
20260505192725 88 235 1.7 5.2 0.00 0.00 0.00 67 1005.1
20260505192222 87 287 2.6 3.5 0.00 0.00 0.00 68 1004.9
20260505191720 87 343 1.7 3.5 0.00 0.00 0.00 69 1005.0
20260505191218 86 195 1.7 5.2 0.00 0.00 0.00 69 1004.8
20260505190714 87 312 3.5 3.5 0.00 0.00 0.00 69 1005.0
20260505190213 86 316 3.5 4.3 0.00 0.00 0.00 71 1005.0
20260505185710 86 92 0.9 5.2 0.00 0.00 0.00 71 1005.1
20260505185207 85 344 1.7 4.3 0.00 0.00 0.00 72 1005.2
20260505184703 85 130 2.6 5.2 0.00 0.00 0.00 71 1005.2
20260505184201 85 74 1.7 3.5 0.00 0.00 0.00 70 1005.4
20260505183657 84 330 1.7 5.2 0.00 0.00 0.00 72 1005.2
20260505183155 84 53 1.7 5.2 0.00 0.00 0.00 73 1005.3
20260505182650 84 292 1.7 6.1 0.00 0.00 0.00 73 1005.4
20260505182148 84 52 1.7 5.2 0.00 0.00 0.00 72 1005.3
20260505181644 84 242 1.7 3.5 0.00 0.00 0.00 72 1005.3
20260505181142 84 327 2.6 5.2 0.00 0.00 0.00 72 1005.3
20260505180638 83 124 1.7 5.2 0.00 0.00 0.00 72 1005.4
20260505180136 84 349 3.5 3.5 0.00 0.00 0.00 72 1005.3
20260505175631 83 332 1.7 3.5 0.00 0.00 0.00 73 1005.4
20260505175128 84 317 1.7 5.2 0.00 0.00 0.00 71 1005.3
20260505174625 84 339 2.6 3.5 0.00 0.00 0.00 72 1005.3
20260505174121 84 325 1.7 4.3 0.00 0.00 0.00 71 1005.5
20260505173617 85 308 3.5 4.3 0.00 0.00 0.00 70 1005.3
20260505173113 84 229 0.9 3.5 0.00 0.00 0.00 71 1005.2
20260505172611 84 249 1.7 8.7 0.00 0.00 0.00 72 1005.5
20260505172108 83 354 4.3 6.1 0.00 0.00 0.00 72 1005.3
20260505171603 84 319 1.7 3.5 0.00 0.00 0.00 72 1005.4
20260505171100 83 283 3.5 6.1 0.00 0.00 0.00 72 1005.4
20260505170557 83 266 3.5 5.2 0.00 0.00 0.00 72 1005.5
20260505170054 84 233 1.7 4.3 0.00 0.00 0.00 72 1005.3
20260505165549 83 99 1.7 6.1 0.00 0.00 0.00 73 1005.4
20260505165045 81 57 1.7 4.3 0.00 0.00 0.00 75 1005.5
20260505164541 80 298 0.9 5.2 0.00 0.00 0.00 76 1005.3
20260505164038 81 342 1.7 5.2 0.00 0.00 0.00 74 1005.6
20260505163537 81 123 2.6 5.2 0.00 0.00 0.00 74 1005.5
20260505163033 82 319 1.7 4.3 0.00 0.00 0.00 74 1005.1
20260505162526 82 321 3.5 7.8 0.00 0.00 0.00 73 1005.4
20260505162023 82 17 0.9 7.0 0.00 0.00 0.00 74 1005.0
20260505161520 82 44 2.6 3.5 0.00 0.00 0.00 74 1005.2
20260505161017 82 293 4.3 5.2 0.00 0.00 0.00 74 1005.4
20260505160515 82 342 2.6 5.2 0.00 0.00 0.00 76 1005.2
20260505152951 81 320 3.5 7.0 0.00 0.00 0.00 77 1005.3
20260505152449 79 283 2.6 3.5 0.00 0.00 0.00 78 1005.4
20260505151944 78 280 2.6 4.3 0.00 0.00 0.00 80 1005.2
20260505151439 78 92 3.5 6.1 0.00 0.00 0.00 81 1005.2
20260505150937 78 309 1.7 3.5 0.00 0.00 0.00 81 1005.4
20260505150428 77 91 2.6 4.3 0.00 0.00 0.00 83 1005.4
20260505140358 74 305 1.7 3.5 0.00 0.00 0.00 86 1005.3
20260505124812 72 4 1.7 2.6 0.00 0.00 0.00 90 1005.2
20260505124309 71 3 0.9 2.6 0.00 0.00 0.00 90 1005.2
20260505123804 71 332 0.0 2.6 0.00 0.00 0.00 90 1004.8
20260505123301 71 162 1.7 2.6 0.00 0.00 0.00 90 1004.8
20260505122757 71 293 0.9 3.5 0.00 0.00 0.00 90 1004.6
20260505122255 71 349 1.7 4.3 0.00 0.00 0.00 90 1004.6
20260505121751 71 342 2.6 4.3 0.00 0.00 0.00 90 1004.6
20260505121248 71 290 1.7 1.7 0.00 0.00 0.00 90 1004.7
20260505120744 71 356 1.7 3.5 0.00 0.00 0.00 90 1004.6
20260505120241 71 301 1.7 4.3 0.00 0.00 0.00 90 1004.6
20260505115739 71 359 0.9 2.6 0.00 0.00 0.00 91 1004.6
20260505115237 71 317 3.5 3.5 0.00 0.00 0.00 90 1004.5
20260505114734 71 330 1.7 2.6 0.00 0.00 0.00 90 1004.5
20260505114230 71 137 0.0 3.5 0.00 0.00 0.00 90 1004.5
20260505113727 71 91 2.6 3.5 0.00 0.00 0.00 90 1004.3
20260505113223 71 344 0.9 2.6 0.00 0.00 0.00 90 1004.4
20260505112720 71 310 1.7 4.3 0.00 0.00 0.00 90 1004.3
20260505112218 71 74 1.7 2.6 0.00 0.00 0.00 90 1004.5
20260505111717 71 271 0.9 4.3 0.00 0.00 0.00 90 1004.4
20260505111214 71 2 0.9 4.3 0.00 0.00 0.00 90 1004.3
20260505110709 71 356 1.7 2.6 0.00 0.00 0.00 90 1004.5
20260505110207 71 348 2.6 3.5 0.00 0.00 0.00 90 1004.4
20260505102143 71 12 1.7 3.5 0.00 0.00 0.00 89 1004.3
20260505101641 71 278 0.0 3.5 0.00 0.00 0.00 89 1004.3
20260505101137 71 36 3.5 5.2 0.00 0.00 0.00 89 1004.4
20260505100633 71 285 2.6 2.6 0.00 0.00 0.00 89 1004.7
20260505100131 71 298 1.7 3.5 0.00 0.00 0.00 89 1004.4
20260505095627 71 304 5.2 5.2 0.00 0.00 0.00 89 1004.4
20260505095124 71 307 1.7 5.2 0.00 0.00 0.00 89 1004.4
20260505094620 71 83 0.9 4.3 0.00 0.00 0.00 89 1004.6
20260505094116 71 6 0.9 2.6 0.00 0.00 0.00 89 1004.5
20260505093613 71 253 1.7 3.5 0.00 0.00 0.00 89 1004.7
20260505093110 71 287 2.6 3.5 0.00 0.00 0.00 89 1004.7
20260505092607 71 56 1.7 2.6 0.00 0.00 0.00 89 1004.8
20260505092106 71 281 2.6 3.5 0.00 0.00 0.00 89 1004.9
20260505091602 71 331 1.7 5.2 0.00 0.00 0.00 89 1004.7
20260505091101 71 296 2.6 4.3 0.00 0.00 0.00 89 1004.9
20260505090558 71 319 1.7 3.5 0.00 0.00 0.00 89 1004.9
20260505090056 71 328 3.5 3.5 0.00 0.00 0.00 89 1004.6
20260505085553 71 307 1.7 6.1 0.00 0.00 0.00 89 1004.9
20260505085051 71 312 2.6 3.5 0.00 0.00 0.00 89 1004.7
20260505084549 71 291 1.7 5.2 0.00 0.00 0.00 89 1004.7
20260505084047 71 329 1.7 5.2 0.00 0.00 0.00 89 1004.8
20260505083544 71 93 1.7 3.5 0.00 0.00 0.00 89 1004.8
20260505083040 71 344 3.5 4.3 0.00 0.00 0.00 89 1004.7
20260505082536 71 28 0.9 3.5 0.00 0.00 0.00 89 1004.9
20260505082033 71 281 2.6 4.3 0.00 0.00 0.00 89 1004.9
20260505081530 71 349 1.7 5.2 0.00 0.00 0.00 89 1005.1
20260505081027 71 112 0.9 3.5 0.00 0.00 0.00 89 1005.1
20260505080523 71 354 2.6 4.3 0.00 0.00 0.00 89 1005.1
20260505080020 71 321 1.7 3.5 0.00 0.00 0.00 89 1005.1
20260505075516 71 36 1.7 5.2 0.00 0.00 0.00 89 1005.0
20260505075013 71 315 3.5 3.5 0.00 0.00 0.00 89 1005.2
20260505074510 71 291 2.6 4.3 0.00 0.00 0.00 88 1005.3
20260505074007 71 266 2.6 2.6 0.00 0.00 0.00 88 1005.5
20260505073504 71 297 2.6 4.3 0.00 0.00 0.00 88 1005.6
20260505073003 71 351 1.7 4.3 0.00 0.00 0.00 88 1005.8
20260505072458 71 343 1.7 2.6 0.00 0.00 0.00 87 1005.6
20260505071954 71 327 2.6 4.3 0.00 0.00 0.00 87 1005.6
20260505071450 71 201 1.7 4.3 0.00 0.00 0.00 87 1005.7
20260505070948 72 292 2.6 3.5 0.00 0.00 0.00 86 1006.0
20260505070445 72 340 3.5 4.3 0.00 0.00 0.00 86 1005.8
20260505065940 72 7 1.7 3.5 0.00 0.00 0.00 86 1006.0
20260505065437 72 258 3.5 4.3 0.00 0.00 0.00 86 1005.9
20260505064934 72 352 1.7 4.3 0.00 0.00 0.00 85 1005.8
20260505064431 72 349 3.5 4.3 0.00 0.00 0.00 85 1006.1
20260505063929 72 342 2.6 5.2 0.00 0.00 0.00 85 1006.2
20260505063425 72 246 0.9 4.3 0.00 0.00 0.00 85 1006.1
20260505062922 72 247 1.7 3.5 0.00 0.00 0.00 84 1006.1
20260505062419 72 297 1.7 3.5 0.00 0.00 0.00 84 1006.1
20260505061916 72 353 0.9 3.5 0.00 0.00 0.00 84 1006.1
20260505061414 73 330 4.3 7.0 0.00 0.00 0.00 84 1006.3
20260505060911 73 346 0.0 2.6 0.00 0.00 0.00 83 1006.2
20260505060408 73 282 1.7 4.3 0.00 0.00 0.00 83 1006.2
20260505055904 73 258 1.7 3.5 0.00 0.00 0.00 83 1006.4
20260505055400 73 322 0.9 3.5 0.00 0.00 0.00 83 1006.2
20260505054857 73 284 2.6 2.6 0.00 0.00 0.00 83 1006.1